Location: Corralito
(14.1667°N, 87.1833°W)
Time: 07:34:41
(UTC+00:00)

Nadezhda 4 Rocket - Pass Details

Date: 07 October 2020
Orbit: 949 x 993 km, 82.9° (Epoch: 20 October)

Event Time Altitude Azimuth Distance (km) Brightness Sun altitude
Rises 00:25:07 0° 346° (NNW) 3,632 7.1 -13.1°
Reaches altitude 10° 00:27:41 10° 340° (NNW) 2,691 6.5 -13.7°
Maximum altitude 00:33:33 47° 268° (W) 1,254 5.1 -15.1°
Drops below altitude 10° 00:39:29 10° 196° (SSW) 2,718 6.6 -16.6°
Sets 00:42:06 0° 190° (S) 3,671 7.2 -17.2°
